SHT4C EGLL-EGAC

Flight info

Callsign SHT4C
Flight time 0h 53m
Altitude 38000
Route ULTIB1J ULTIB T420 TNT UL28 RODOL UM65 TENSO L603 BELOX DCT REMSI DCT NINEB M148 MAGEE DCT
Aircraft A320/M-SDE3FGIJ1KRWXY/SB1

Departure

Time 2026-04-21 10:34
Airport London Heathrow Airport (EGLL)

Arrival

Time 2026-04-21 11:28
Airport George Best Belfast City Airport (EGAC)
Time Latitude Longitude Altitude Speed Heading
2026-04-21 09:50 51.46931 -0.48647 90 ft 0 kts 360°
2026-04-21 10:26 51.46929 -0.48647 86 ft 2 kts 360°
2026-04-21 10:26 51.46903 -0.48647 87 ft 3 kts 360°
2026-04-21 10:26 51.46884 -0.48645 88 ft 4 kts 318°
2026-04-21 10:26 51.46877 -0.48615 89 ft 4 kts 270°
2026-04-21 10:27 51.46877 -0.48592 86 ft 0 kts 270°
2026-04-21 10:30 51.46877 -0.48594 86 ft 1 kts 270°
2026-04-21 10:30 51.46877 -0.48641 87 ft 7 kts 270°
2026-04-21 10:31 51.46867 -0.48732 87 ft 10 kts 228°
2026-04-21 10:31 51.46794 -0.48750 86 ft 12 kts 180°
2026-04-21 10:31 51.46701 -0.48749 86 ft 15 kts 179°
2026-04-21 10:31 51.46592 -0.48770 87 ft 17 kts 199°
2026-04-21 10:32 51.46505 -0.48769 88 ft 10 kts 146°
2026-04-21 10:32 51.46479 -0.48655 86 ft 5 kts 91°
2026-04-21 10:32 51.46479 -0.48654 86 ft 0 kts 90°
2026-04-21 10:34 51.46479 -0.48482 86 ft 49 kts 89°
2026-04-21 10:34 51.46481 -0.47579 86 ft 110 kts 90°
2026-04-21 10:34 51.46481 -0.46107 167 ft 147 kts 87°
2026-04-21 10:34 51.46480 -0.44450 712 ft 151 kts 87°
2026-04-21 10:35 51.46506 -0.42783 1484 ft 148 kts 85°
2026-04-21 10:35 51.46717 -0.41082 1842 ft 166 kts 64°
2026-04-21 10:35 51.47477 -0.39494 2073 ft 196 kts 50°
2026-04-21 10:35 51.48427 -0.37718 2391 ft 227 kts 51°
2026-04-21 10:36 51.49475 -0.35721 3194 ft 237 kts 51°
2026-04-21 10:36 51.50559 -0.33692 4195 ft 242 kts 52°
2026-04-21 10:36 51.51667 -0.31581 5095 ft 250 kts 55°
2026-04-21 10:36 51.52511 -0.29139 5687 ft 251 kts 71°
2026-04-21 10:37 51.53107 -0.26527 5875 ft 248 kts 72°
2026-04-21 10:37 51.53966 -0.24129 5944 ft 253 kts 49°
2026-04-21 10:37 51.55436 -0.22551 5985 ft 260 kts 24°
2026-04-21 10:37 51.57259 -0.22286 5969 ft 269 kts
2026-04-21 10:38 51.59122 -0.22717 6073 ft 273 kts 353°
2026-04-21 10:38 51.60982 -0.23360 6107 ft 275 kts 348°
2026-04-21 10:38 51.62740 -0.24652 6274 ft 285 kts 330°
2026-04-21 10:38 51.64395 -0.26395 7245 ft 285 kts 332°
2026-04-21 10:39 51.66090 -0.28064 8162 ft 287 kts 333°
2026-04-21 10:39 51.67818 -0.29710 9090 ft 290 kts 333°
2026-04-21 10:39 51.69569 -0.31363 9988 ft 293 kts 333°
2026-04-21 10:39 51.71346 -0.33046 10701 ft 304 kts 333°
2026-04-21 10:40 51.73243 -0.34847 10977 ft 327 kts 333°
2026-04-21 10:40 51.75256 -0.36772 11393 ft 342 kts 332°
2026-04-21 10:40 51.77322 -0.38766 12097 ft 348 kts 332°
2026-04-21 10:40 51.79409 -0.40790 12756 ft 352 kts 332°
2026-04-21 10:41 51.81517 -0.42840 13486 ft 356 kts 331°
2026-04-21 10:41 51.83649 -0.44917 14120 ft 360 kts 331°
2026-04-21 10:41 51.85794 -0.47011 14283 ft 361 kts 332°
2026-04-21 10:41 51.87946 -0.49112 14322 ft 361 kts 332°
2026-04-21 10:42 51.90099 -0.51213 14328 ft 362 kts 332°
2026-04-21 10:42 51.92254 -0.53312 14318 ft 361 kts 332°
2026-04-21 10:42 51.94404 -0.55406 14322 ft 361 kts 331°
2026-04-21 10:42 51.96560 -0.57506 14470 ft 364 kts 331°
2026-04-21 10:43 51.98733 -0.59627 15192 ft 365 kts 332°
2026-04-21 10:43 52.00915 -0.61756 15873 ft 368 kts 332°
2026-04-21 10:43 52.03117 -0.63909 16507 ft 371 kts 332°
2026-04-21 10:43 52.05336 -0.66089 17161 ft 375 kts 331°
2026-04-21 10:44 52.07584 -0.68300 17730 ft 380 kts 331°
2026-04-21 10:44 52.09822 -0.70501 18360 ft 383 kts 331°
2026-04-21 10:44 52.12118 -0.72760 18910 ft 388 kts 331°
2026-04-21 10:44 52.14432 -0.75039 19505 ft 390 kts 330°
2026-04-21 10:45 52.16751 -0.77327 20172 ft 390 kts 330°
2026-04-21 10:45 52.19069 -0.79620 20871 ft 389 kts 330°
2026-04-21 10:45 52.21377 -0.81905 21564 ft 388 kts 329°
2026-04-21 10:45 52.23685 -0.84190 22214 ft 387 kts 329°
2026-04-21 10:46 52.25982 -0.86466 22886 ft 386 kts 329°
2026-04-21 10:46 52.28272 -0.88739 23583 ft 384 kts 329°
2026-04-21 10:46 52.30585 -0.91040 23821 ft 396 kts 330°
2026-04-21 10:46 52.32970 -0.93411 24008 ft 406 kts 329°
2026-04-21 10:47 52.35391 -0.95817 24433 ft 408 kts 329°
2026-04-21 10:47 52.37819 -0.98234 24965 ft 407 kts 329°
2026-04-21 10:47 52.40228 -1.00640 25580 ft 403 kts 328°
2026-04-21 10:47 52.42599 -1.03018 26272 ft 398 kts 327°
2026-04-21 10:48 52.44952 -1.05387 26783 ft 397 kts 327°
2026-04-21 10:48 52.47304 -1.07752 27263 ft 397 kts 327°
2026-04-21 10:48 52.49662 -1.10118 27733 ft 398 kts 327°
2026-04-21 10:48 52.52024 -1.12493 28196 ft 399 kts 327°
2026-04-21 10:49 52.54403 -1.14889 28573 ft 403 kts 327°
2026-04-21 10:49 52.56795 -1.17297 28967 ft 405 kts 326°
2026-04-21 10:49 52.59204 -1.19724 29399 ft 406 kts 326°
2026-04-21 10:49 52.61610 -1.22153 29839 ft 407 kts 326°
2026-04-21 10:50 52.64027 -1.24599 30275 ft 408 kts 326°
2026-04-21 10:50 52.66441 -1.27047 30645 ft 409 kts 326°
2026-04-21 10:50 52.68873 -1.29519 30970 ft 411 kts 326°
2026-04-21 10:50 52.71280 -1.31966 31365 ft 412 kts 326°
2026-04-21 10:51 52.73716 -1.34441 31896 ft 411 kts 326°
2026-04-21 10:51 52.76150 -1.36920 32340 ft 411 kts 326°
2026-04-21 10:51 52.78596 -1.39413 32660 ft 415 kts 326°
2026-04-21 10:51 52.81056 -1.41925 33030 ft 416 kts 326°
2026-04-21 10:52 52.83515 -1.44441 33443 ft 416 kts 326°
2026-04-21 10:52 52.85978 -1.46962 33880 ft 416 kts 326°
2026-04-21 10:52 52.88440 -1.49487 34325 ft 416 kts 326°
2026-04-21 10:52 52.90900 -1.52014 34678 ft 416 kts 326°
2026-04-21 10:53 52.93364 -1.54548 35006 ft 417 kts 326°
2026-04-21 10:53 52.95831 -1.57094 35322 ft 418 kts 326°
2026-04-21 10:53 52.98304 -1.59652 35629 ft 419 kts 326°
2026-04-21 10:53 53.00783 -1.62215 35929 ft 421 kts 327°
2026-04-21 10:54 53.03247 -1.64761 36186 ft 423 kts 327°
2026-04-21 10:54 53.05741 -1.67344 36528 ft 423 kts 327°
2026-04-21 10:54 53.08237 -1.69935 36877 ft 422 kts 327°
2026-04-21 10:54 53.10730 -1.72521 37176 ft 423 kts 327°
2026-04-21 10:55 53.13232 -1.75116 37455 ft 424 kts 327°
2026-04-21 10:55 53.15735 -1.77724 37731 ft 425 kts 327°
2026-04-21 10:55 53.18243 -1.80350 38023 ft 425 kts 327°
2026-04-21 10:55 53.20748 -1.82977 38293 ft 426 kts 327°
2026-04-21 10:56 53.23250 -1.85603 38400 ft 425 kts 327°
2026-04-21 10:56 53.28343 -1.90680 38412 ft 429 kts 330°
2026-04-21 10:57 53.33561 -1.95514 38412 ft 427 kts 331°
2026-04-21 10:57 53.38752 -2.00332 38411 ft 426 kts 330°
2026-04-21 10:58 53.43940 -2.05260 38430 ft 429 kts 330°
2026-04-21 10:58 53.49113 -2.10224 38413 ft 429 kts 330°
2026-04-21 10:59 53.54298 -2.15204 38413 ft 430 kts 330°
2026-04-21 10:59 53.59007 -2.21342 38421 ft 430 kts 311°
2026-04-21 11:00 53.62154 -2.29867 38422 ft 431 kts 292°
2026-04-21 11:00 53.64176 -2.38686 38420 ft 432 kts 292°
2026-04-21 11:01 53.66339 -2.48148 38424 ft 433 kts 292°
2026-04-21 11:01 53.68511 -2.57638 38424 ft 434 kts 292°
2026-04-21 11:02 53.71748 -2.71916 38418 ft 435 kts 291°
2026-04-21 11:02 53.73888 -2.81459 38459 ft 434 kts 291°
2026-04-21 11:03 53.76018 -2.90988 38440 ft 434 kts 291°
2026-04-21 11:03 53.78148 -3.00535 38095 ft 434 kts 291°
2026-04-21 11:04 53.79211 -3.05321 37822 ft 435 kts 291°
2026-04-21 11:04 53.80273 -3.10108 37562 ft 433 kts 291°
2026-04-21 11:04 53.81325 -3.14869 37294 ft 431 kts 290°
2026-04-21 11:04 53.82372 -3.19616 37033 ft 431 kts 290°
2026-04-21 11:05 53.83420 -3.24375 36783 ft 431 kts 290°
2026-04-21 11:05 53.84464 -3.29123 36541 ft 430 kts 290°
2026-04-21 11:05 53.85506 -3.33873 36283 ft 430 kts 290°
2026-04-21 11:05 53.86543 -3.38617 36037 ft 429 kts 290°
2026-04-21 11:06 53.87577 -3.43369 35795 ft 429 kts 290°
2026-04-21 11:06 53.88606 -3.48118 35529 ft 429 kts 290°
2026-04-21 11:06 53.89637 -3.52883 34756 ft 433 kts 290°
2026-04-21 11:06 53.90679 -3.57700 33805 ft 438 kts 290°
2026-04-21 11:07 53.91716 -3.62499 32950 ft 439 kts 289°
2026-04-21 11:07 53.92761 -3.67351 32353 ft 434 kts 289°
2026-04-21 11:07 53.93788 -3.72130 31834 ft 427 kts 289°
2026-04-21 11:07 53.94801 -3.76841 31276 ft 423 kts 289°
2026-04-21 11:08 53.95825 -3.81491 30725 ft 419 kts 292°
2026-04-21 11:08 53.97148 -3.85880 30077 ft 416 kts 298°
2026-04-21 11:08 53.98587 -3.90112 29425 ft 412 kts 298°
2026-04-21 11:08 54.00010 -3.94310 28781 ft 408 kts 298°
2026-04-21 11:09 54.01415 -3.98473 28151 ft 404 kts 298°
2026-04-21 11:09 54.02805 -4.02603 27541 ft 401 kts 298°
2026-04-21 11:09 54.04181 -4.06704 26937 ft 397 kts 299°
2026-04-21 11:09 54.05546 -4.10777 26352 ft 394 kts 299°
2026-04-21 11:10 54.07005 -4.14705 25773 ft 392 kts 304°
2026-04-21 11:10 54.08572 -4.18477 25207 ft 389 kts 304°
2026-04-21 11:10 54.10130 -4.22225 24665 ft 386 kts 304°
2026-04-21 11:10 54.11675 -4.25945 24118 ft 383 kts 304°
2026-04-21 11:11 54.13203 -4.29637 23490 ft 380 kts 304°
2026-04-21 11:11 54.14717 -4.33310 22847 ft 377 kts 304°
2026-04-21 11:11 54.16220 -4.36956 22211 ft 375 kts 304°
2026-04-21 11:11 54.17719 -4.40596 21609 ft 375 kts 304°
2026-04-21 11:12 54.19205 -4.44205 21014 ft 377 kts 304°
2026-04-21 11:12 54.20715 -4.47875 20425 ft 378 kts 305°
2026-04-21 11:12 54.22224 -4.51547 19844 ft 378 kts 305°
2026-04-21 11:12 54.23742 -4.55247 19275 ft 380 kts 305°
2026-04-21 11:13 54.25256 -4.58949 18716 ft 380 kts 305°
2026-04-21 11:13 54.26767 -4.62649 18085 ft 380 kts 305°
2026-04-21 11:13 54.28276 -4.66352 17460 ft 379 kts 305°
2026-04-21 11:13 54.29780 -4.70054 16843 ft 379 kts 305°
2026-04-21 11:14 54.31279 -4.73751 16277 ft 377 kts 305°
2026-04-21 11:14 54.32766 -4.77422 15790 ft 373 kts 305°
2026-04-21 11:14 54.34239 -4.81061 15325 ft 369 kts 304°
2026-04-21 11:14 54.35695 -4.84657 14878 ft 365 kts 304°
2026-04-21 11:15 54.37132 -4.88215 14439 ft 361 kts 304°
2026-04-21 11:15 54.38557 -4.91751 13970 ft 359 kts 304°
2026-04-21 11:15 54.39969 -4.95261 13473 ft 356 kts 304°
2026-04-21 11:15 54.41371 -4.98757 12990 ft 354 kts 304°
2026-04-21 11:16 54.42763 -5.02231 12509 ft 352 kts 304°
2026-04-21 11:16 54.44145 -5.05684 12047 ft 350 kts 304°
2026-04-21 11:16 54.45527 -5.09115 11589 ft 348 kts 305°
2026-04-21 11:16 54.46906 -5.12515 11133 ft 346 kts 305°
2026-04-21 11:17 54.48279 -5.15895 10691 ft 344 kts 305°
2026-04-21 11:17 54.49457 -5.19454 10231 ft 341 kts 292°
2026-04-21 11:17 54.50167 -5.23271 9737 ft 328 kts 280°
2026-04-21 11:17 54.50418 -5.27080 9262 ft 314 kts 269°
2026-04-21 11:18 54.50290 -5.30741 8900 ft 303 kts 263°
2026-04-21 11:18 54.50162 -5.33130 8661 ft 303 kts 263°
2026-04-21 11:18 54.49972 -5.36736 8306 ft 302 kts 263°
2026-04-21 11:18 54.49783 -5.40337 7944 ft 302 kts 263°
2026-04-21 11:19 54.49593 -5.43936 7619 ft 301 kts 264°
2026-04-21 11:19 54.49404 -5.47515 7348 ft 299 kts 264°
2026-04-21 11:19 54.49216 -5.51057 7095 ft 295 kts 264°
2026-04-21 11:19 54.49030 -5.54546 6860 ft 291 kts 264°
2026-04-21 11:20 54.48846 -5.57971 6615 ft 282 kts 264°
2026-04-21 11:20 54.48669 -5.61249 6376 ft 269 kts 264°
2026-04-21 11:20 54.48497 -5.64376 6144 ft 256 kts 264°
2026-04-21 11:20 54.48333 -5.67363 5916 ft 247 kts 264°
2026-04-21 11:21 54.48170 -5.70288 5671 ft 244 kts 264°
2026-04-21 11:21 54.48007 -5.73179 5449 ft 242 kts 264°
2026-04-21 11:21 54.47846 -5.76038 5220 ft 239 kts 264°
2026-04-21 11:21 54.47689 -5.78854 5007 ft 235 kts 264°
2026-04-21 11:22 54.47534 -5.81628 4791 ft 232 kts 263°
2026-04-21 11:22 54.47378 -5.84376 4554 ft 231 kts 264°
2026-04-21 11:22 54.47224 -5.87110 4321 ft 229 kts 264°
2026-04-21 11:22 54.47071 -5.89816 4084 ft 226 kts 264°
2026-04-21 11:23 54.46920 -5.92495 3854 ft 224 kts 263°
2026-04-21 11:23 54.46768 -5.95156 3617 ft 223 kts 263°
2026-04-21 11:23 54.46786 -5.97795 3370 ft 220 kts 288°
2026-04-21 11:23 54.47532 -5.99946 3170 ft 203 kts 323°
2026-04-21 11:24 54.48707 -6.01035 2931 ft 184 kts 355°
2026-04-21 11:24 54.49909 -6.01052 2752 ft 164 kts 21°
2026-04-21 11:24 54.50884 -6.00275 2582 ft 148 kts 41°
2026-04-21 11:24 54.51689 -5.99323 2422 ft 132 kts 42°
2026-04-21 11:25 54.52434 -5.98436 2231 ft 128 kts 43°
2026-04-21 11:25 54.53163 -5.97567 2053 ft 127 kts 42°
2026-04-21 11:25 54.53885 -5.96701 1869 ft 126 kts 44°
2026-04-21 11:25 54.54603 -5.95840 1671 ft 125 kts 43°
2026-04-21 11:26 54.55320 -5.94993 1501 ft 125 kts 43°
2026-04-21 11:26 54.56034 -5.94137 1331 ft 125 kts 42°
2026-04-21 11:26 54.56755 -5.93278 1147 ft 125 kts 43°
2026-04-21 11:26 54.57472 -5.92421 943 ft 127 kts 39°
2026-04-21 11:27 54.58191 -5.91558 801 ft 125 kts 41°
2026-04-21 11:27 54.58911 -5.90699 618 ft 128 kts 40°
2026-04-21 11:27 54.59641 -5.89836 431 ft 126 kts 40°
2026-04-21 11:27 54.60360 -5.88977 257 ft 128 kts 43°
2026-04-21 11:28 54.61083 -5.88111 65 ft 127 kts 39°
2026-04-21 11:28 54.61742 -5.87331 27 ft 92 kts 34°
2026-04-21 11:28 54.62028 -5.86991 23 ft 20 kts 34°
2026-04-21 11:28 54.62154 -5.86839 23 ft 23 kts 35°
2026-04-21 11:29 54.62290 -5.86677 24 ft 25 kts 34°
2026-04-21 11:29 54.62428 -5.86550 24 ft 15 kts
2026-04-21 11:29 54.62462 -5.86443 25 ft 11 kts 147°
2026-04-21 11:29 54.62404 -5.86527 27 ft 13 kts 234°
2026-04-21 11:30 54.62321 -5.86641 24 ft 18 kts 214°
2026-04-21 11:30 54.62207 -5.86779 24 ft 22 kts 215°
2026-04-21 11:30 54.62074 -5.86936 23 ft 22 kts 214°
2026-04-21 11:30 54.61940 -5.87095 24 ft 25 kts 214°
2026-04-21 11:31 54.61833 -5.87161 24 ft 14 kts 148°
2026-04-21 11:31 54.61764 -5.87011 24 ft 15 kts 135°
2026-04-21 11:31 54.61670 -5.87058 23 ft 11 kts 214°
2026-04-21 11:31 54.61596 -5.87146 23 ft 14 kts 215°
2026-04-21 11:32 54.61527 -5.87220 23 ft 6 kts 193°
2026-04-21 11:32 54.61493 -5.87211 23 ft 4 kts 160°
2026-04-21 11:32 54.61471 -5.87195 25 ft 2 kts 156°
2026-04-21 11:32 54.61462 -5.87188 24 ft 0 kts 156°
2026-04-21 11:33 54.61461 -5.87187 23 ft 0 kts 156°